Location: Rowland
(34.5359°N, 79.2929°W)
Time: 21:32:14
(UTC+00:00)

A-11 Canister half - Pass Details

Date: 06 October 2022
Orbit: 1516 x 1684 km, 47.2° (Epoch: 28 November)

Event Time Altitude Azimuth Distance (km) Brightness Sun altitude
Exits shadow 06:58:01 12° 115° (ESE) 3,503 11.0 -50.7°
Drops below altitude 10° 06:58:33 10° 115° (ESE) 3,670 11.1 -50.6°
Sets 07:01:36 0° 118° (ESE) 4,656 11.7 -50.2°
